Willkommen auf der Webseite des Flugplatzes Uetersen/Heist PDF Drucken E-Mail

Liebe Piloten,

G20 und Asphaltierungsarbeiten sind Vergangenheit, als nächstes Highlight steht am Wochenende 29./30.07.2017 das alljährlich stattfindende Wings and Wheels Event vor der Tür mit reichlich Abwechslung am Boden und in der Luft. Weitere Infos unter http://www.wingsnwheels.de/

 

Sobald die Zeitfenster und Verfahren für an- und abfliegende Piloten an dem WnW-Wochenende genauer festgelegt sind, erhalten Sie hier eine aktuelle Information.

 

Ihr Flugplatzteam

 

Liebe Fliegerfreunde, liebe Gäste und Kunden des Flugplatzes Uetersen,

Herr Szaguhn steht mit seinem Tower-Restaurant täglich außer Montags für Sie bereit.

 

 

 

 

Zufallsbild

Aktuelle Termine

Mo Di Mi Do Fr Sa So
31 1 2 3 4 5 6
7 8 9 10 11 12 13
14 15 16 17 18 19 20
21 22 23 24 25 26 27
28 29 30 31 1 2 3

Pilotenwetter

[source: ADDS]
METAR
EDDH 240850Z 23008KT 4500 -DZ BKN006 16/15 Q1013 TEMPO BKN004 =
TAF
TAF EDDH 240500Z 2406/2512 15007KT CAVOK BECMG 2406/2409 25010KT TEMPO 2406/2409 SHRA SCT040CB PROB30 TEMPO 2406/2409 25015G25KT 2500 TSRA BKN020CB PROB30 TEMPO 2409/2411 3000 BR BKN007 PROB30 TEMPO 2412/2416 27015G25KT BECMG 2418/2421 24005KT TEMPO 2502/2506 3000 BR =